CW1780 Weather Reports


time (UTC)temp
F
wind
direction
speed
knots
gust
knots
rain 1hr
in
rain 24hr
in
rain mn
in
humidity
%
barometer
mb
20260508125003 45 308 0.0 2.6 0.00 0.00 0.00 80 1016.9
20260508124003 44 310 0.9 2.6 0.00 0.00 0.00 82 1017.0
20260508123003 43 330 0.0 2.6 0.00 0.00 0.00 86 1017.0
20260508122003 42 47 0.0 0.9 0.00 0.00 0.00 91 1016.9
20260508121003 41 47 0.0 0.9 0.00 0.00 0.00 94 1016.6
20260508120003 40 35 0.0 0.9 0.00 0.00 0.00 95 1016.6
20260508115003 38 20 0.0 1.7 0.00 0.00 0.00 96 1016.4
20260508114003 38 0 0.0 0.0 0.00 0.00 0.00 96 1016.4
20260508113024 36 0 0.0 0.0 0.00 0.00 0.00 96 1016.3
20260508112003 35 0 0.0 0.0 0.00 0.00 0.00 95 1016.3
20260508111003 34 0 0.0 0.0 0.00 0.00 0.00 94 1016.3
20260508110004 34 0 0.0 0.0 0.00 0.00 0.00 94 1016.2
20260508105003 34 0 0.0 0.0 0.00 0.00 0.00 94 1016.2
20260508104007 34 0 0.0 0.0 0.00 0.00 0.00 94 1015.9
20260508103003 35 0 0.0 0.0 0.00 0.00 0.00 94 1015.9
20260508102003 35 0 0.0 0.0 0.00 0.00 0.00 94 1015.9
20260508101007 35 0 0.0 0.0 0.00 0.00 0.00 94 1015.9
20260508100028 35 0 0.0 0.0 0.00 0.00 0.00 94 1015.8
20260508095029 35 0 0.0 0.0 0.00 0.00 0.00 93 1015.8
20260508094029 36 0 0.0 0.0 0.00 0.00 0.00 93 1015.7
20260508093004 36 0 0.0 0.0 0.00 0.00 0.00 93 1015.8
20260508092024 36 0 0.0 0.0 0.00 0.00 0.00 93 1015.8
20260508091003 36 0 0.0 0.0 0.00 0.00 0.00 93 1015.6
20260508090004 37 0 0.0 0.0 0.00 0.00 0.00 93 1015.7
20260508085003 37 0 0.0 0.0 0.00 0.00 0.00 93 1015.7
20260508084003 37 0 0.0 0.0 0.00 0.00 0.00 93 1015.6
20260508083003 37 0 0.0 0.0 0.00 0.00 0.00 93 1015.7
20260508082003 37 0 0.0 0.0 0.00 0.00 0.00 93 1015.7
20260508081003 37 0 0.0 0.0 0.00 0.01 0.00 93 1015.7
20260508080003 37 0 0.0 0.0 0.00 0.01 0.00 92 1015.5
20260508075024 38 0 0.0 0.0 0.00 0.01 0.00 92 1015.5
20260508074003 38 0 0.0 0.0 0.00 0.01 0.00 92 1015.4
20260508073003 38 0 0.0 0.0 0.00 0.01 0.00 91 1015.3
20260508072004 38 0 0.0 0.0 0.00 0.01 0.00 91 1015.3
20260508071003 39 0 0.0 0.0 0.00 0.01 0.00 90 1015.2
20260508070004 39 0 0.0 0.0 0.00 0.01 0.00 90 1015.0
20260508065003 40 0 0.0 0.0 0.00 0.01 0.00 90 1015.1
20260508064003 40 0 0.0 0.0 0.00 0.01 0.00 95 1015.2
20260508063003 40 0 0.0 0.0 0.00 0.01 0.00 90 1015.0
20260508062003 41 0 0.0 0.0 0.00 0.01 0.00 90 1015.1
20260508061003 41 0 0.0 0.0 0.00 0.01 0.00 89 1015.2
20260508060004 42 0 0.0 0.0 0.00 0.01 0.00 88 1015.2
20260508055003 42 0 0.0 0.0 0.00 0.01 0.00 89 1015.3
20260508054003 42 0 0.0 0.0 0.00 0.01 0.00 89 1015.2
20260508053024 43 0 0.0 0.0 0.00 0.01 0.00 89 1015.2
20260508052024 43 0 0.0 0.0 0.00 0.01 0.00 89 1015.2
20260508051003 42 0 0.0 0.0 0.00 0.01 0.00 88 1015.1
20260508050024 42 0 0.0 0.0 0.00 0.01 0.00 88 1015.0
20260508045003 42 0 0.0 0.0 0.00 0.01 0.00 87 1014.8
20260508044003 43 0 0.0 0.0 0.00 0.01 0.00 86 1014.6
20260508043003 43 0 0.0 0.0 0.00 0.01 0.00 86 1014.6
20260508042024 43 0 0.0 0.0 0.00 0.01 0.00 85 1014.4
20260508041024 43 0 0.0 0.0 0.00 0.01 0.00 85 1014.4
20260508040004 44 0 0.0 0.0 0.00 0.01 0.00 85 1014.4
20260508035003 44 0 0.0 0.0 0.00 0.01 0.01 86 1014.3
20260508034003 44 0 0.0 0.0 0.00 0.01 0.01 86 1014.3
20260508033003 44 0 0.0 0.0 0.00 0.01 0.01 86 1014.2
20260508032024 44 0 0.0 0.0 0.00 0.01 0.01 86 1014.1
20260508031024 44 0 0.0 0.0 0.00 0.01 0.01 87 1014.0
20260508030003 44 0 0.0 0.0 0.00 0.01 0.01 86 1014.1
20260508025003 45 0 0.0 0.0 0.00 0.03 0.01 85 1014.0
20260508024003 45 0 0.0 0.0 0.00 0.06 0.01 85 1013.8
20260508023024 45 0 0.0 0.0 0.00 0.13 0.01 84 1013.9
20260508022003 46 0 0.0 0.0 0.00 0.26 0.01 84 1013.6
20260508021003 46 0 0.0 0.0 0.00 0.26 0.01 84 1013.6
20260508020003 46 0 0.0 0.0 0.00 0.26 0.01 84 1013.5
20260508015003 46 0 0.0 0.0 0.00 0.34 0.01 84 1013.4
20260508014003 47 0 0.0 0.0 0.00 0.36 0.01 83 1013.1
20260508013003 47 0 0.0 0.0 0.00 0.48 0.01 82 1012.8
20260508012003 47 0 0.0 0.0 0.00 0.56 0.01 82 1012.9
20260508011003 47 0 0.0 0.0 0.00 0.60 0.01 80 1012.5
20260508010003 48 0 0.0 0.0 0.00 0.60 0.01 78 1012.3
20260508005024 49 0 0.0 0.0 0.00 0.60 0.01 77 1012.5
20260508004024 49 0 0.0 0.0 0.00 0.60 0.01 75 1012.4
20260508003003 50 0 0.0 0.0 0.00 0.60 0.01 74 1012.4
20260508002024 50 0 0.0 0.0 0.00 0.60 0.01 73 1012.4
20260508001003 51 0 0.0 0.0 0.00 0.60 0.01 72 1012.5
20260508000004 52 0 0.0 0.0 0.00 0.60 0.01 71 1012.4
20260507235003 52 20 0.0 0.9 0.00 0.60 0.01 69 1012.4
20260507234003 53 19 0.0 0.9 0.00 0.60 0.01 69 1012.4
20260507233003 54 19 0.0 1.7 0.00 0.60 0.01 67 1012.3
20260507232003 54 328 0.0 2.6 0.00 0.60 0.01 68 1012.3
20260507231003 54 68 0.0 4.3 0.00 0.60 0.01 66 1012.1
20260507230024 54 48 0.0 2.6 0.00 0.60 0.01 67 1012.1
20260507225003 54 57 0.0 1.7 0.00 0.60 0.01 70 1012.0
20260507224003 53 74 0.9 6.1 0.00 0.60 0.01 69 1012.0
20260507223003 54 75 0.9 4.3 0.00 0.60 0.01 69 1011.8
20260507222003 54 68 0.9 6.1 0.00 0.60 0.01 67 1011.7
20260507221003 55 45 0.9 4.3 0.00 0.60 0.01 66 1011.6
20260507220003 56 105 0.9 3.5 0.00 0.60 0.01 65 1011.7
20260507215003 57 80 0.9 6.1 0.00 0.60 0.01 62 1011.5
20260507214003 58 64 0.9 5.2 0.00 0.60 0.01 62 1011.4
20260507213003 57 84 0.9 5.2 0.00 0.60 0.01 65 1011.1
20260507212003 56 44 0.9 4.3 0.00 0.60 0.01 70 1011.1
20260507211003 55 87 0.9 4.3 0.00 0.60 0.01 70 1011.1
20260507210024 54 66 0.9 2.6 0.00 0.60 0.01 75 1011.0
20260507205003 53 71 0.9 8.7 0.00 0.60 0.01 73 1011.1
20260507204003 54 88 0.9 4.3 0.00 0.60 0.01 73 1011.0
20260507203024 54 67 0.9 4.3 0.00 0.60 0.01 73 1011.0
20260507202003 55 45 0.9 5.2 0.00 0.60 0.01 72 1010.9
20260507201003 56 64 0.9 6.1 0.00 0.60 0.01 72 1010.7
20260507200003 57 70 0.9 4.3 0.00 0.60 0.01 73 1010.5
20260507195003 55 60 0.0 4.3 0.00 0.60 0.01 77 1010.6
20260507194003 54 97 0.9 5.2 0.00 0.60 0.01 76 1010.7
20260507193024 54 61 0.9 4.3 0.00 0.60 0.01 76 1011.0
20260507192003 55 64 0.9 7.0 0.00 0.60 0.01 78 1011.1
20260507191003 54 66 0.0 5.2 0.00 0.60 0.01 77 1011.1
20260507190004 54 52 0.9 3.5 0.00 0.60 0.01 79 1011.4
20260507185003 54 42 0.9 4.3 0.00 0.60 0.01 78 1011.4
20260507184024 54 61 0.9 6.1 0.00 0.60 0.01 78 1011.4
20260507183024 54 62 0.0 7.0 0.00 0.60 0.01 79 1011.4
20260507182003 54 125 0.0 2.6 0.00 0.60 0.01 79 1011.3
20260507181003 54 59 0.9 2.6 0.00 0.60 0.01 79 1011.4
20260507180003 54 59 0.9 3.5 0.00 0.60 0.01 78 1011.3
20260507175003 54 61 0.9 2.6 0.00 0.60 0.01 80 1011.0
20260507174003 54 53 0.9 4.3 0.00 0.60 0.01 81 1011.1
20260507173003 54 80 0.9 4.3 0.00 0.60 0.01 80 1011.1
20260507172003 54 90 0.9 4.3 0.00 0.60 0.01 80 1011.2
20260507171003 54 79 0.9 6.1 0.00 0.60 0.01 82 1011.2
20260507170024 53 19 0.0 3.5 0.00 0.60 0.01 83 1011.4
20260507165003 53 9 0.0 2.6 0.00 0.60 0.01 84 1011.4
20260507164003 53 355 0.9 3.5 0.00 0.61 0.01 84 1011.4
20260507163024 52 70 1.7 6.1 0.00 0.61 0.01 84 1011.5
20260507162003 52 63 0.9 7.8 0.00 0.61 0.01 85 1011.6
20260507161003 52 77 0.0 3.5 0.00 0.61 0.01 84 1011.3
20260507160024 51 109 0.0 3.5 0.00 0.61 0.01 86 1011.3
20260507155003 50 28 0.0 2.6 0.00 0.62 0.01 87 1011.4
20260507154003 50 88 0.9 5.2 0.00 0.62 0.01 87 1011.5
20260507153003 51 104 0.0 4.3 0.00 0.62 0.01 85 1011.5
20260507152003 51 65 0.0 3.5 0.00 0.62 0.01 86 1011.7
20260507151003 52 109 0.0 2.6 0.00 0.62 0.01 87 1011.6
20260507150003 52 102 0.0 2.6 0.00 0.62 0.01 88 1011.8
20260507145003 52 91 0.0 2.6 0.00 0.62 0.01 87 1011.8
20260507144003 52 360 0.0 2.6 0.00 0.62 0.01 87 1011.6
20260507143003 52 3 0.0 1.7 0.00 0.62 0.01 87 1011.4
20260507142003 53 82 0.0 1.7 0.00 0.62 0.01 88 1011.4
20260507141003 53 79 0.0 4.3 0.00 0.62 0.01 89 1011.3
20260507140003 53 80 0.0 2.6 0.00 0.62 0.01 89 1011.5
20260507135024 53 83 0.9 0.9 0.00 0.62 0.01 91 1011.5
20260507134003 53 86 0.0 4.3 0.00 0.62 0.01 90 1011.4
20260507133003 53 95 0.0 2.6 0.00 0.62 0.01 89 1011.4
20260507132024 53 142 0.0 0.9 0.00 0.64 0.01 89 1011.3
20260507131003 53 84 0.0 0.9 0.00 0.67 0.01 90 1011.4
20260507130024 53 90 0.0 2.6 0.00 0.71 0.01 89 1011.5